Regional Weather Roundup
Issued by NWS

Home | Current Version | Previous Version | Graphics & Text | Print | Product List | Glossary Off
Versions: 1 2 3 4 5 6 7 8 9 10 11 12 13 14 15 16 17 18 19 20 21 22 23 24 25 26 27 28 29 30 31 32 33 34 35 36 37 38 39 40 41 42 43 44 45 46 47 48 49 50

000
ASUS43 KDMX 010007
RWRIA

WEATHER ROUNDUP FOR IOWA
NATIONAL WEATHER SERVICE DES MOINES IA
700 PM CDT SUN AUG 31 2014

NOTE: "FAIR" INDICATES FEW OR NO CLOUDS BELOW 12,000 FEET WITH NO
SIGNIFICANT WEATHER AND/OR OBSTRUCTIONS TO VISIBILITY.

* - THESE STATIONS ARE NOT NWS STATIONS...THUS NOT UNDER NWS
QUALITY CONTROL.  THEY ALSO DO NOT REPORT WEATHER SUCH
AS PRECIPITATION OR FOG.

IAZ001>003-012>014-020>022-031>034-043>046-010100-
   NORTHWEST IOWA

CITY           SKY/WX    TMP DP  RH WIND       PRES   REMARKS
CARROLL *      PTCLDY    77  72  83 SE10G20   29.60F
CHEROKEE *     TSTM      71  70  98 W14G20    29.73R
DENISON *      LGT RAIN  73  72  94 VRB7G28   29.50F
LE MARS *      DRIZZLE   70  68  94 N10G20    29.65F
ORANGE CITY *  RAIN      70  64  83 NW5       29.69F
SHELDON *      LGT RAIN  66  66 100 NW7G15    29.71F
SIOUX CITY     LGT RAIN  69  65  86 NW10        N/A
6HR MIN TEMP:  62; 6HR MAX TEMP:  81; 6HR PCP:  1.11;

SPENCER        TSTM      69  66  90 W23       29.71S VSB 3/4
6HR MIN TEMP:  69; 6HR MAX TEMP:  80; 6HR PCP:  0.14;

STORM LAKE *   HVY RAIN  68  68 100 N7G22     29.69S VSB 1/4
$$

IAZ055>058-069>071-079>083-090>094-010100-
   SOUTHWEST IOWA

CITY           SKY/WX    TMP DP  RH WIND       PRES   REMARKS
ATLANTIC *     CLEAR     81  73  78 SE14G23   29.60F HX  85
AUDUBON *      CLEAR     81  75  83 SE15G21   29.60F HX  86
CLARINDA *     CLEAR     82  75  78 S10       29.65F HX  89
COUNCIL BLFS * MOCLDY    79  77  94 SE12G20   29.58F HX  83
CRESTON *      CLEAR     81  72  74 SE15G25   29.68F HX  84
HARLAN  *      MOCLDY    81  75  83 SE17G24   29.58F HX  86
LAMONI         PTCLDY    81  71  71 SE12      29.72F HX  85
6HR MIN TEMP:  81; 6HR MAX TEMP:  86; 6HR PCP: TRACE;

RED OAK *      PTCLDY    82  75  78 S18G25    29.59F HX  89
SHENANDOAH *   PTCLDY    82  72  69 S17       29.63F HX  87
$$

IAZ047>049-059>061-072>074-084-010100-
   CENTRAL IOWA

CITY           SKY/WX    TMP DP  RH WIND       PRES   REMARKS
AMES           PTCLDY    80  73  79 S7        29.71F HX  84
6HR MIN TEMP:  79; 6HR MAX TEMP:  87; 6HR PCP: TRACE;

ANKENY *       CLEAR     81  73  78 S9G18     29.69F HX  85
CHARITON *     PTCLDY    81  73  78 SE13      29.73F HX  85
DES MOINES     MOCLDY    82  72  71 S15       29.68F HX  87
6HR MIN TEMP:  82; 6HR MAX TEMP:  89; 6HR PCP: TRACE;

GRINNELL*      MOCLDY    81  72  74 SE13      29.73F HX  84
KNOXVILLE *    MOCLDY    81  73  78 SE12      29.71F HX  85
MARSHALLTOWN   MOCLDY    81  71  71 SE12      29.71F HX  85
6HR MIN TEMP:  81; 6HR MAX TEMP:  86; 6HR PCP: TRACE;

PELLA *        LGT RAIN  81  73  75 SE9       29.74F HX  85
PERRY *          N/A     79  73  83 SE9       29.67F HX  82
$$

IAZ004>006-015-016-023>025-035-036-010100-
   NORTH CENTRAL IOWA

CITY           SKY/WX    TMP DP  RH WIND       PRES   REMARKS
ALGONA *       MOCLDY    68  66  94 SE7       29.66F
CLARION *      CLOUDY    72  68  88 NE5       29.71F
ESTHERVILLE    CLOUDY    67  65  93 NW3       29.67F
6HR MIN TEMP:  67; 6HR MAX TEMP:  77; 6HR PCP:  0.02;

FORT DODGE *   MOCLDY    72  66  83 E10       29.68F
MASON CITY     CLOUDY    73  66  78 CALM      29.75F
6HR MIN TEMP:  70; 6HR MAX TEMP:  88; 6HR PCP:  0.01;

FOREST CITY *    N/A     68  68 100 SE6       29.71F
IOWA FALLS *     N/A     77  72  85 E3        29.74F
$$

IAZ007>011-017>019-026>030-037>042-050>054-066-010100-
   NORTHEAST IOWA

CITY           SKY/WX    TMP DP  RH WIND       PRES   REMARKS
CEDAR RAPIDS   MOCLDY    81  73  76 S10       29.77F HX  86
6HR MIN TEMP:  81; 6HR MAX TEMP:  86;

CHARLES CITY * PTCLDY    73  70  88 SE3       29.76F
CLINTON *      PTCLDY    82  70  65 S10       29.85F HX  86
DECORAH *      CLOUDY    77  72  83 S7G13     29.77F
DUBUQUE        PTCLDY    77  68  73 S10       29.82F
6HR MIN TEMP:  77; 6HR MAX TEMP:  84;

MONTICELLO *   CLEAR     81  73  78 SE7       29.79F HX  85
OELWEIN *      CLEAR     81  73  78 SE6       29.77F HX  85
WATERLOO       CLOUDY    82  71  69 SE10      29.72F HX  86
6HR MIN TEMP:  81; 6HR MAX TEMP:  87; 6HR PCP: TRACE;

$$

IAZ064-065-067-068-078-010100-
   EAST CENTRAL IOWA

CITY           SKY/WX    TMP DP  RH WIND       PRES   REMARKS
DAVENPORT      CLEAR     81  68  64 S15G21    29.83F HX  84
6HR MIN TEMP:  81; 6HR MAX TEMP:  85;

IOWA CITY      MOCLDY    83  73  72 S9        29.80F HX  89
6HR MIN TEMP:  83; 6HR MAX TEMP:  87;

MT. PLEASANT * PTCLDY    83  70  63 SE8       29.81F HX  87
MUSCATINE *    CLEAR     84  72  65 S9        29.81F HX  89
QUAD CITIES    CLEAR     82  70  66 SE6       29.83F HX  86
6HR MIN TEMP:  82; 6HR MAX TEMP:  87;

$$

IAZ062-063-075>077-085>089-095>099-010100-
   SOUTHEAST IOWA

CITY           SKY/WX    TMP DP  RH WIND       PRES   REMARKS
BURLINGTON     PTCLDY    83  72  69 S8        29.83F HX  88
6HR MIN TEMP:  82; 6HR MAX TEMP:  87; 6HR PCP: TRACE;

FAIRFIELD *    CLEAR     82  72  69 SE12      29.78F HX  87
FORT MADISON * CLEAR     84  72  65 SE6       29.83F HX  89
KEOKUK *       CLEAR     82  72  69 SE6       29.81F HX  87
OSKALOOSA *      N/A     79  72  78 SE9       29.77F HX  83
CENTERVILLE *  CLEAR     81  73  78 SE9       29.78F HX  85
OTTUMWA        PTCLDY    81  70  69 SE9       29.76F HX  84
6HR MIN TEMP:  81; 6HR MAX TEMP:  87;

WASHINGTON *   CLEAR     81  73  78 SE10      29.79F HX  85
$$

ABBREVIATIONS USED IN REMARKS
   TC - TEMPERATURES IN CELSIUS
  WCI - WIND CHILL INDEX
   HX - HEAT INDEX
  VSB - VISIBILITY
$$




USA.gov is the U.S. government's official web portal to all federal, state and local government web resources and services.